Regional Weather Roundup
Issued by NWS

Home | Current Version | Previous Version | Graphics & Text | Print | Product List | Glossary On
Versions: 1 2 3 4 5 6 7 8 9 10 11 12 13 14 15 16 17 18 19 20 21 22 23 24 25 26 27 28 29 30 31 32 33 34 35 36 37 38 39 40 41 42 43 44 45 46 47 48 49 50
000
ASUS43 KLMK 262302
RWRKY
KENTUCKY REGIONAL WEATHER ROUNDUP
NATIONAL WEATHER SERVICE LOUISVILLE KY
700 PM EDT FRI AUG 26 2016

NOTE "FAIR" INDICATES FEW OR NO CLOUDS BELOW 12,000 FEET
WITH NO SIGNIFICANT WEATHER AND/OR OBSTRUCTIONS TO VISIBILITY.

KYZ001>023-026-027-061>063-070>075-270000-
WESTERN AND SOUTH CENTRAL KENTUCKY

CITY           SKY/WX    TMP DP  RH WIND       PRES   REMARKS
PADUCAH        CLOUDY    79  75  87 SW5       30.06R
HENDERSON      CLOUDY    81  70  69 E5        30.04R
OWENSBORO      CLOUDY    89  76  65 E6        30.05R HX 100
HOPKINSVILLE   CLOUDY    89  76  66 N8        30.04R HX 100
BOWLING GREEN  SUNNY     90  73  57 E3        30.05R HX  98
GLASGOW        SUNNY     87  72  62 E5        30.05R HX  93
$$

KYZ024-025-028>034-038-045-046-053-270000-
NORTH CENTRAL KENTUCKY

CITY           SKY/WX    TMP DP  RH WIND       PRES   REMARKS
LOUISVILLE/SDF MOSUNNY   91  68  46 SE7       30.05R HX  95
LOUISVILLE/LOU SUNNY     91  67  44 SE6       30.05F HX  94
FORT KNOX      SUNNY     89  71  56 E6        30.05S HX  94
$$

KYZ035>037-039>044-047>052-055>060-089>105-270000-
NORTHEAST KENTUCKY

CITY           SKY/WX    TMP DP  RH WIND       PRES   REMARKS
LEXINGTON      PTSUNNY   88  70  55 S5        30.09S HX  93
COVINGTON      CLOUDY    90  72  55 CALM      30.07F HX  97
FRANKFORT      MOSUNNY   92  67  43 CALM      30.06F HX  95
$$

KYZ054-064>069-076>088-106>120-270000-
SOUTHEAST KENTUCKY

CITY           SKY/WX    TMP DP  RH WIND       PRES   REMARKS
JACKSON        SUNNY     87  70  56 CALM      30.12F HX  92
LONDON         SUNNY     88  67  49 NE6       30.10F HX  91
SOMERSET       SUNNY     88  68  51 E5        30.09S HX  91
MIDDLESBORO    PTSUNNY   88  73  60 N3        30.09S HX  95
MONTICELLO     CLEAR    N/A N/A N/A VRB5      30.09S
$$





USA.gov is the U.S. government's official web portal to all federal, state and local government web resources and services.